GW2898 Weather Reports


Display with metric or nautical units.
time (UTC)temp
F
wind
direction
speed
MPH
gust
MPH
rain 1hr
in
rain 24hr
in
rain mn
in
humidity
%
barometer
mb
20260902062133 86 104 0.0 0.0 0.00 0.00 0.00 57 1016.2
20260902061632 86 104 0.0 0.0 0.00 0.00 0.00 54 1016.2
20260902061128 86 135 0.0 1.0 0.00 0.00 0.00 54 1016.1
20260902060624 86 104 0.0 0.0 0.00 0.00 0.00 54 1016.0
20260902060120 86 104 0.0 1.0 0.00 0.00 0.00 55 1016.1
20260902055616 86 66 0.0 1.0 0.00 0.00 0.00 56 1016.2
20260902055111 86 70 0.0 1.0 0.00 0.00 0.00 55 1016.3
20260902054606 86 117 0.0 0.0 0.00 0.00 0.00 54 1016.2
20260902054102 87 117 0.0 0.0 0.00 0.00 0.00 53 1016.1
20260902053557 87 117 0.0 1.0 0.00 0.00 0.00 52 1016.2
20260902053056 87 73 1.0 1.0 0.00 0.00 0.00 53 1016.2
20260902052551 87 256 0.0 0.0 0.00 0.00 0.00 52 1016.3
20260902052046 88 256 0.0 1.0 0.00 0.00 0.00 51 1016.3
20260902051541 88 142 0.0 1.0 0.00 0.00 0.00 51 1016.2
20260902051040 88 212 0.0 2.0 0.00 0.00 0.00 51 1016.3
20260902050535 89 210 0.0 1.0 0.00 0.00 0.00 50 1016.1
20260902050030 89 189 0.0 3.0 0.00 0.00 0.00 50 1016.3
20260902045525 86 196 2.0 3.0 0.00 0.00 0.00 54 1016.3
20260902045021 85 104 0.0 0.0 0.00 0.00 0.00 58 1016.1
20260902044515 85 104 0.0 0.0 0.00 0.00 0.00 58 1016.1
20260902044011 85 104 0.0 0.0 0.00 0.00 0.00 57 1016.1
20260902043507 86 104 0.0 0.0 0.00 0.00 0.00 56 1015.8
20260902043006 86 104 0.0 0.0 0.00 0.00 0.00 56 1016.0
20260902042501 86 104 0.0 0.0 0.00 0.00 0.00 55 1016.0
20260902041956 86 104 0.0 0.0 0.00 0.00 0.00 54 1016.0
20260902041450 86 104 0.0 0.0 0.00 0.00 0.00 55 1016.0
20260902040950 86 104 0.0 0.0 0.00 0.00 0.00 55 1015.6
20260902040444 86 104 0.0 0.0 0.00 0.00 0.00 55 1015.8
20260902035943 86 104 0.0 0.0 0.00 0.00 0.00 55 1015.6
20260902035439 87 104 0.0 0.0 0.00 0.00 0.00 54 1015.8
20260902034938 87 104 0.0 0.0 0.00 0.00 0.00 55 1015.5
20260902034434 87 104 0.0 1.0 0.00 0.00 0.00 55 1015.5
20260902033932 87 117 0.0 0.0 0.00 0.00 0.00 56 1015.4
20260902033432 87 117 0.0 0.0 0.00 0.00 0.00 53 1015.2
20260902032931 87 117 0.0 0.0 0.00 0.00 0.00 53 1015.2
20260902032426 87 117 0.0 0.0 0.00 0.00 0.00 53 1015.2
20260902031920 87 117 0.0 0.0 0.00 0.00 0.00 54 1015.0
20260902031416 88 117 0.0 0.0 0.00 0.00 0.00 54 1014.9
20260902030913 88 117 0.0 0.0 0.00 0.00 0.00 51 1014.7
20260902030407 88 117 0.0 0.0 0.00 0.00 0.00 51 1014.5
20260902025906 88 117 0.0 0.0 0.00 0.00 0.00 50 1014.5
20260902025402 89 117 0.0 1.0 0.00 0.00 0.00 50 1014.5
20260902024901 89 117 0.0 0.0 0.00 0.00 0.00 51 1014.4
20260902024352 89 117 0.0 0.0 0.00 0.00 0.00 50 1014.2
20260902023847 89 104 0.0 0.0 0.00 0.00 0.00 51 1014.3
20260902023342 89 89 0.0 1.0 0.00 0.00 0.00 50 1014.4
20260902022841 89 104 0.0 0.0 0.00 0.00 0.00 49 1014.4
20260902022337 89 104 0.0 0.0 0.00 0.00 0.00 48 1014.2
20260902021832 90 104 0.0 1.0 0.00 0.00 0.00 47 1014.2
20260902021326 90 103 0.0 1.0 0.00 0.00 0.00 46 1014.2
20260902020823 90 50 0.0 0.0 0.00 0.00 0.00 45 1014.3
20260902020319 91 50 0.0 0.0 0.00 0.00 0.00 45 1013.9
20260902015814 91 50 0.0 0.0 0.00 0.00 0.00 45 1014.1
20260902015310 92 50 0.0 0.0 0.00 0.00 0.00 44 1014.0
20260902014805 92 50 0.0 0.0 0.00 0.00 0.00 41 1014.1
20260902014302 93 50 0.0 0.0 0.00 0.00 0.00 42 1013.9
20260902013800 94 50 0.0 0.0 0.00 0.00 0.00 41 1014.1
20260902013256 95 50 0.0 0.0 0.00 0.00 0.00 41 1013.9
20260902012750 96 106 0.0 2.0 0.00 0.00 0.00 37 1013.7
20260902012247 96 124 0.0 1.0 0.00 0.00 0.00 38 1013.9
20260902011742 97 66 0.0 3.0 0.00 0.00 0.00 39 1014.2
20260902011242 98 111 1.0 3.0 0.00 0.00 0.00 36 1014.2
20260902010741 97 5 0.0 1.0 0.00 0.00 0.00 35 1014.2
20260902010237 98 84 1.0 2.0 0.00 0.00 0.00 37 1014.2
20260902005735 98 235 0.0 3.0 0.00 0.00 0.00 36 1014.3
20260902005231 98 222 2.0 5.0 0.00 0.00 0.00 36 1014.3
20260902004731 100 199 2.0 4.0 0.00 0.00 0.00 35 1014.4
20260902004226 99 42 0.0 2.0 0.00 0.00 0.00 35 1014.5
20260902003721 99 244 3.0 4.0 0.00 0.00 0.00 35 1014.3
20260902003217 101 222 0.0 2.0 0.00 0.00 0.00 33 1014.5
20260902002712 100 279 0.0 3.0 0.00 0.00 0.00 33 1014.6
20260902002206 100 255 3.0 6.0 0.00 0.00 0.00 35 1014.5
20260902001701 100 136 2.0 3.0 0.00 0.00 0.00 34 1014.7
20260902001156 100 259 2.0 6.0 0.00 0.00 0.00 35 1014.6
20260902000651 100 216 3.0 3.0 0.00 0.00 0.00 33 1014.7
20260902000146 100 189 0.0 3.0 0.00 0.00 0.00 37 1014.7
20260901235640 99 158 4.0 5.0 0.00 0.00 0.00 36 1014.9
20260901235136 100 237 2.0 4.0 0.00 0.00 0.00 34 1014.7
20260901234634 100 255 3.0 4.0 0.00 0.00 0.00 34 1014.9
20260901234130 100 189 2.0 3.0 0.00 0.00 0.00 36 1014.8
20260901233625 99 232 4.0 7.0 0.00 0.00 0.00 36 1014.7
20260901233121 100 211 0.0 3.0 0.00 0.00 0.00 39 1014.9
20260901232621 100 163 1.0 3.0 0.00 0.00 0.00 36 1015.0
20260901232116 99 294 2.0 5.0 0.00 0.00 0.00 37 1015.1
20260901231613 98 216 2.0 7.0 0.00 0.00 0.00 37 1015.2
20260901231108 99 231 3.0 5.0 0.00 0.00 0.00 40 1015.3
20260901230603 100 187 2.0 4.0 0.00 0.00 0.00 38 1015.3
20260901230058 98 249 3.0 7.0 0.00 0.00 0.00 36 1015.3
20260901225553 99 225 4.0 9.0 0.00 0.00 0.00 37 1015.4
20260901225052 99 228 3.0 7.0 0.00 0.00 0.00 38 1015.5
20260901224549 100 187 2.0 3.0 0.00 0.00 0.00 38 1015.4
20260901224044 98 88 2.0 4.0 0.00 0.00 0.00 41 1015.3
20260901223540 100 269 3.0 5.0 0.00 0.00 0.00 37 1015.4
20260901223035 98 269 2.0 5.0 0.00 0.00 0.00 37 1015.6
20260901222531 98 155 0.0 7.0 0.00 0.00 0.00 39 1015.4
20260901222027 97 214 4.0 7.0 0.00 0.00 0.00 40 1015.6
20260901221523 98 226 5.0 6.0 0.00 0.00 0.00 40 1015.6
20260901221018 99 70 2.0 3.0 0.00 0.00 0.00 39 1015.6
20260901220517 98 225 3.0 4.0 0.00 0.00 0.00 39 1015.8
20260901220016 98 252 2.0 4.0 0.00 0.00 0.00 40 1015.7
20260901215514 97 247 1.0 4.0 0.00 0.00 0.00 43 1016.1
20260901215009 96 105 3.0 6.0 0.00 0.00 0.00 42 1016.2
20260901214508 97 245 5.0 8.0 0.00 0.00 0.00 42 1015.8
20260901214003 98 251 2.0 4.0 0.00 0.00 0.00 40 1016.2
20260901213456 97 84 2.0 3.0 0.00 0.00 0.00 41 1016.4
20260901212955 97 55 1.0 4.0 0.00 0.00 0.00 42 1016.4
20260901212450 96 247 4.0 5.0 0.00 0.00 0.00 40 1016.7
20260901211942 96 224 3.0 7.0 0.00 0.00 0.00 42 1016.8
20260901211437 96 72 2.0 5.0 0.00 0.00 0.00 42 1016.9
20260901210933 96 243 5.0 8.0 0.00 0.00 0.00 42 1016.7
20260901210428 95 236 3.0 6.0 0.00 0.00 0.00 44 1016.8
20260901205925 96 215 2.0 6.0 0.00 0.00 0.00 45 1016.9
20260901205419 95 307 3.0 6.0 0.00 0.00 0.00 43 1017.0
20260901204914 95 262 3.0 7.0 0.00 0.00 0.00 45 1017.1
20260901204411 96 229 1.0 3.0 0.00 0.00 0.00 46 1017.4
20260901203910 95 285 2.0 4.0 0.00 0.00 0.00 43 1017.1
20260901203404 95 244 5.0 7.0 0.00 0.00 0.00 43 1017.4
20260901202900 95 203 3.0 5.0 0.00 0.00 0.00 47 1017.3
20260901202354 95 233 5.0 8.0 0.00 0.00 0.00 45 1017.5
20260901201850 94 264 3.0 7.0 0.00 0.00 0.00 44 1017.3
20260901201350 95 266 0.0 3.0 0.00 0.00 0.00 46 1017.6
20260901200844 94 212 0.0 5.0 0.00 0.00 0.00 45 1017.7
20260901200339 94 325 2.0 5.0 0.00 0.00 0.00 45 1017.8
20260901195838 94 357 1.0 3.0 0.00 0.00 0.00 44 1017.7
20260901195331 93 229 2.0 6.0 0.00 0.00 0.00 46 1017.8
20260901194827 93 233 3.0 5.0 0.00 0.00 0.00 46 1017.7
20260901194321 93 326 1.0 5.0 0.00 0.00 0.00 45 1018.0
20260901193818 93 166 2.0 3.0 0.00 0.00 0.00 48 1018.2
20260901193316 93 163 3.0 5.0 0.00 0.00 0.00 46 1018.1
20260901192811 93 190 2.0 5.0 0.00 0.00 0.00 50 1018.4
20260901192307 93 190 2.0 5.0 0.00 0.00 0.00 49 1018.4
20260901191802 93 249 3.0 4.0 0.00 0.00 0.00 49 1018.3
20260901191258 93 193 2.0 5.0 0.00 0.00 0.00 50 1018.4
20260901190754 92 231 1.0 7.0 0.00 0.00 0.00 52 1018.2
20260901190248 91 252 4.0 7.0 0.00 0.00 0.00 51 1018.5
20260901185746 91 273 2.0 5.0 0.00 0.00 0.00 51 1018.7
20260901185245 91 288 3.0 7.0 0.00 0.00 0.00 51 1018.9
20260901184741 91 217 3.0 6.0 0.00 0.00 0.00 53 1018.9
20260901184236 91 212 0.0 3.0 0.00 0.00 0.00 53 1019.1
20260901183732 91 218 3.0 6.0 0.00 0.00 0.00 55 1019.1
20260901183231 90 246 3.0 6.0 0.00 0.00 0.00 53 1019.1
20260901182728 91 159 3.0 4.0 0.00 0.00 0.00 52 1019.2
20260901182226 91 110 3.0 5.0 0.00 0.00 0.00 53 1019.1
20260901181721 91 184 0.0 6.0 0.00 0.00 0.00 52 1019.3
20260901181215 91 45 2.0 3.0 0.00 0.00 0.00 53 1019.5
20260901180715 90 64 5.0 5.0 0.00 0.00 0.00 55 1019.2
20260901180209 89 172 2.0 8.0 0.00 0.00 0.00 54 1019.4
20260901175709 90 212 4.0 5.0 0.00 0.00 0.00 54 1019.3
20260901175209 90 201 2.0 3.0 0.00 0.00 0.00 56 1019.1
20260901174704 88 213 3.0 7.0 0.00 0.00 0.00 55 1019.5
20260901174200 89 203 2.0 5.0 0.00 0.00 0.00 56 1019.5
20260901173655 88 244 3.0 9.0 0.00 0.00 0.00 57 1019.6
20260901173150 88 193 2.0 7.0 0.00 0.00 0.00 58 1019.6
20260901172646 87 247 4.0 7.0 0.00 0.00 0.00 57 1019.7
20260901172143 88 220 3.0 4.0 0.00 0.00 0.00 58 1019.7
20260901171643 87 237 4.0 5.0 0.00 0.00 0.00 57 1019.5
20260901171142 87 230 3.0 8.0 0.00 0.00 0.00 59 1019.5
20260901170636 87 181 2.0 5.0 0.00 0.00 0.00 58 1019.7
20260901170131 87 172 0.0 7.0 0.00 0.00 0.00 59 1019.7
20260901165630 86 214 3.0 9.0 0.00 0.00 0.00 58 1019.6
20260901165125 87 214 4.0 6.0 0.00 0.00 0.00 59 1019.4
20260901164621 87 152 3.0 6.0 0.00 0.00 0.00 58 1019.6
20260901164116 86 212 2.0 6.0 0.00 0.00 0.00 63 1019.5
20260901163612 85 241 2.0 5.0 0.00 0.00 0.00 61 1019.3
20260901163110 86 208 4.0 8.0 0.00 0.00 0.00 62 1019.6
20260901162607 85 258 1.0 5.0 0.00 0.00 0.00 60 1019.3
20260901162105 86 222 5.0 5.0 0.00 0.00 0.00 60 1019.4
20260901161604 86 234 3.0 4.0 0.00 0.00 0.00 60 1019.3
20260901161059 85 181 0.0 3.0 0.00 0.00 0.00 60 1019.3
20260901160555 85 195 0.0 4.0 0.00 0.00 0.00 60 1019.2
20260901160050 85 221 2.0 5.0 0.00 0.00 0.00 61 1019.4
20260901155549 84 161 4.0 7.0 0.00 0.00 0.00 61 1019.4
20260901155045 85 198 1.0 4.0 0.00 0.00 0.00 61 1019.3
20260901154544 85 195 2.0 5.0 0.00 0.00 0.00 60 1019.4
20260901154040 85 169 3.0 5.0 0.00 0.00 0.00 60 1019.3
20260901153539 86 203 2.0 3.0 0.00 0.00 0.00 58 1019.1
20260901153034 86 333 0.0 3.0 0.00 0.00 0.00 60 1019.0
20260901152529 86 158 2.0 3.0 0.00 0.00 0.00 58 1019.0
20260901152028 84 243 0.0 4.0 0.00 0.00 0.00 60 1019.0
20260901151524 85 149 2.0 4.0 0.00 0.00 0.00 59 1019.1
20260901151023 84 107 0.0 5.0 0.00 0.00 0.00 61 1019.1
20260901150521 84 84 4.0 5.0 0.00 0.00 0.00 62 1018.9
20260901150019 83 81 3.0 6.0 0.00 0.00 0.00 63 1019.0
20260901145513 83 79 5.0 7.0 0.00 0.00 0.00 62 1018.9
20260901145012 84 41 2.0 4.0 0.00 0.00 0.00 62 1019.0
20260901144508 84 104 1.0 4.0 0.00 0.00 0.00 63 1019.1
20260901144003 83 27 0.0 3.0 0.00 0.00 0.00 64 1018.9
20260901143459 83 92 2.0 3.0 0.00 0.00 0.00 66 1018.9
20260901142956 82 17 0.0 2.0 0.00 0.00 0.00 68 1018.7
20260901142455 82 0 2.0 3.0 0.00 0.00 0.00 68 1018.9
20260901141950 82 89 0.0 2.0 0.00 0.00 0.00 68 1018.7
20260901141450 82 38 0.0 1.0 0.00 0.00 0.00 69 1018.9
20260901140945 81 0 0.0 1.0 0.00 0.00 0.00 70 1019.0
20260901140443 80 76 0.0 3.0 0.00 0.00 0.00 72 1018.9
20260901135938 80 70 1.0 2.0 0.00 0.00 0.00 74 1018.9
20260901135432 79 28 2.0 2.0 0.00 0.00 0.00 76 1019.1
20260901134929 78 14 1.0 2.0 0.00 0.00 0.00 80 1018.9
20260901134424 78 123 1.0 2.0 0.00 0.00 0.00 82 1018.6
20260901133923 77 87 0.0 1.0 0.00 0.00 0.00 84 1018.7
20260901133417 76 81 0.0 1.0 0.00 0.00 0.00 86 1018.6
20260901132916 75 129 0.0 1.0 0.00 0.00 0.00 86 1018.6
20260901132411 74 50 0.0 1.0 0.00 0.00 0.00 87 1018.4
20260901131910 74 262 0.0 1.0 0.00 0.00 0.00 87 1018.3
20260901131410 73 38 0.0 0.0 0.00 0.00 0.00 87 1018.2
20260901130906 73 50 0.0 0.0 0.00 0.00 0.00 87 1018.2
20260901130406 73 50 0.0 1.0 0.00 0.00 0.00 87 1018.3
20260901125903 73 269 0.0 1.0 0.00 0.00 0.00 87 1018.1
20260901125403 73 117 0.0 0.0 0.00 0.00 0.00 87 1018.1
20260901124857 73 129 0.0 1.0 0.00 0.00 0.00 86 1018.1
20260901124353 73 124 0.0 1.0 0.00 0.00 0.00 86 1018.5
20260901123853 73 89 0.0 1.0 0.00 0.00 0.00 86 1018.2
20260901123348 73 111 1.0 1.0 0.00 0.00 0.00 86 1018.1
20260901122846 73 83 2.0 2.0 0.00 0.00 0.00 86 1018.1
20260901122340 73 117 0.0 1.0 0.00 0.00 0.00 86 1018.2
20260901121840 73 62 0.0 0.0 0.00 0.00 0.00 86 1018.2
20260901121335 73 62 0.0 0.0 0.00 0.00 0.00 86 1018.2
20260901120830 73 117 0.0 1.0 0.00 0.00 0.00 86 1017.9
20260901120324 73 121 0.0 1.0 0.00 0.00 0.00 85 1017.8
20260901115820 73 217 0.0 1.0 0.00 0.00 0.00 85 1017.8
20260901115315 74 62 0.0 0.0 0.00 0.00 0.00 85 1017.9
20260901114813 74 89 0.0 1.0 0.00 0.00 0.00 84 1017.7
20260901114308 73 44 0.0 1.0 0.00 0.00 0.00 84 1017.8
20260901113806 74 55 0.0 1.0 0.00 0.00 0.00 83 1017.7
20260901113301 74 115 0.0 1.0 0.00 0.00 0.00 83 1017.7
20260901112755 74 44 0.0 1.0 0.00 0.00 0.00 83 1017.8
20260901112250 74 66 0.0 1.0 0.00 0.00 0.00 83 1017.7
20260901111745 74 310 0.0 0.0 0.00 0.00 0.00 82 1017.7
20260901111243 74 310 0.0 0.0 0.00 0.00 0.00 82 1017.8
20260901110737 74 37 0.0 1.0 0.00 0.00 0.00 82 1017.6
20260901110233 74 38 0.0 1.0 0.00 0.00 0.00 83 1017.6
20260901105730 74 37 0.0 0.0 0.00 0.00 0.00 83 1017.6
20260901105229 74 37 0.0 1.0 0.00 0.00 0.00 83 1017.4
20260901104725 74 62 0.0 0.0 0.00 0.00 0.00 82 1017.7
20260901104220 74 142 0.0 0.0 0.00 0.00 0.00 82 1017.7
20260901103719 74 89 0.0 1.0 0.00 0.00 0.00 82 1017.7
20260901103215 75 62 0.0 1.0 0.00 0.00 0.00 82 1017.7
20260901102715 74 43 0.0 1.0 0.00 0.00 0.00 82 1017.5
20260901102214 74 117 0.0 0.0 0.00 0.00 0.00 81 1017.8
20260901101710 75 50 0.0 1.0 0.00 0.00 0.00 81 1017.7
20260901101205 75 55 0.0 0.0 0.00 0.00 0.00 81 1017.8
20260901100659 75 50 0.0 0.0 0.00 0.00 0.00 80 1017.8
20260901100154 75 62 0.0 1.0 0.00 0.00 0.00 80 1017.7
20260901095652 75 129 0.0 0.0 0.00 0.00 0.00 80 1017.8
20260901095150 75 129 0.0 1.0 0.00 0.00 0.00 80 1017.8
20260901094644 75 47 0.0 2.0 0.00 0.00 0.00 80 1017.9
20260901094139 75 62 0.0 2.0 0.00 0.00 0.00 80 1017.7
20260901093638 75 89 0.0 2.0 0.00 0.00 0.00 81 1017.8
20260901093138 75 34 0.0 2.0 0.00 0.00 0.00 82 1017.9
20260901092634 75 37 0.0 1.0 0.00 0.00 0.00 82 1017.9
20260901092130 75 129 0.0 0.0 0.00 0.00 0.00 82 1017.7
20260901091625 75 103 1.0 2.0 0.00 0.00 0.00 81 1017.9
20260901091121 75 61 0.0 2.0 0.00 0.00 0.00 81 1017.9
20260901090620 75 113 0.0 1.0 0.00 0.00 0.00 81 1018.0
20260901090116 75 129 0.0 1.0 0.00 0.00 0.00 81 1018.0
20260901085612 75 117 0.0 1.0 0.00 0.00 0.00 82 1017.8
20260901085107 75 142 0.0 1.0 0.00 0.00 0.00 82 1018.0
20260901084603 75 117 0.0 1.0 0.00 0.00 0.00 82 1017.8
20260901084100 75 309 0.0 1.0 0.00 0.00 0.00 82 1017.9
20260901083553 75 129 0.0 1.0 0.00 0.00 0.00 82 1017.8
20260901083051 75 117 0.0 1.0 0.00 0.00 0.00 81 1018.3
20260901082547 75 113 0.0 0.0 0.00 0.00 0.00 81 1017.9
20260901082042 75 113 0.0 0.0 0.00 0.00 0.00 81 1017.9
20260901081537 75 22 0.0 2.0 0.00 0.00 0.00 81 1017.7
20260901081032 75 117 0.0 0.0 0.00 0.00 0.00 80 1017.8
20260901080531 75 142 0.0 1.0 0.00 0.00 0.00 79 1017.9
20260901080025 75 117 0.0 0.0 0.00 0.00 0.00 79 1017.8
20260901075521 76 117 0.0 0.0 0.00 0.00 0.00 78 1017.8
20260901075015 76 80 1.0 2.0 0.00 0.00 0.00 78 1017.8
20260901074514 76 29 0.0 1.0 0.00 0.00 0.00 77 1017.8
20260901074010 76 343 0.0 1.0 0.00 0.00 0.00 77 1017.6
20260901073507 76 25 0.0 0.0 0.00 0.00 0.00 78 1017.8
20260901073006 76 25 0.0 1.0 0.00 0.00 0.00 78 1018.0
20260901072501 76 62 0.0 0.0 0.00 0.00 0.00 78 1018.0
20260901071951 76 62 0.0 0.0 0.00 0.00 0.00 77 1017.8
20260901071450 77 62 0.0 1.0 0.00 0.00 0.00 76 1017.6
20260901070950 76 81 0.0 2.0 0.00 0.00 0.00 76 1017.9
20260901070445 76 129 0.0 0.0 0.00 0.00 0.00 75 1017.6
20260901065944 76 129 0.0 0.0 0.00 0.11 0.11 75 1017.6
20260901065440 77 129 0.0 1.0 0.00 0.11 0.11 75 1017.3
20260901064934 77 142 0.0 1.0 0.00 0.11 0.11 75 1017.4
20260901064431 77 242 0.0 0.0 0.00 0.11 0.11 75 1017.3
20260901063928 77 242 0.0 0.0 0.00 0.11 0.11 75 1017.3
20260901063424 77 104 0.0 1.0 0.00 0.11 0.11 75 1017.3
20260901062920 77 154 0.0 0.0 0.00 0.11 0.11 75 1017.4
20260901062415 77 278 0.0 1.0 0.00 0.11 0.11 75 1017.4